Domov               UVHVVR             MKGP            O straneh              
ZDRAVSTVENO VARSTVO RASTLIN
  MREŽA AGROMET. POSTAJ
 ► PROGNOSTIČNA OBVESTILA
AGROMETEOROLOŠKI PODATKI -
ARSO
OBVLADOVANJE TVEGANJ ZARADI
NEUGODNIH VREMENSKIH RAZMER
  ► NARAVNE NESREČE
  ► SUŠA/MOČA
  ► NAMAKANJE
  ► ŽLED (gozdarstvo)
KARTOGRAFSKI PRIKAZI
SPLETNE POVEZAVE
PROJEKTI IN PUBLIKACIJE

AGROMETEOROLOŠKA MREŽA: VREMENSKE POSTAJE IN FENOLOŠKA OPAZOVANJA

Pregled podatkov za lokacijo Lendava, meteorološka postaja 42840

Pregled senzorjev na lokaciji

ID Ime Zadnja
vrednost
Datum
zadnje
spremembe
Tip
senzorja
2103 Omočenost lista (U) 0 U 25.2.2018 15:30 A730WET
2106 Padavine (mm) 0 mm 25.2.2018 15:30 Rain-O-Matic
2105 Relativna vlaga 2 m (% RH) 55,97 % RH 25.2.2018 15:30 50YA
2104 Temperatura 2 m (°C) -5,82 °C 25.2.2018 15:30 50YA

Pregled podatkov zadnjih 24 ur

Zap.
št.
Datum in čas Lendava
Omočenost
lista
Padavine Relativna
vlaga
2
m
Temperatura
2
m
1 25.2.2018 16:00
2 25.2.2018 15:30 0 0 56 -5,8
3 25.2.2018 15:00 0 0 55 -5,7
4 25.2.2018 14:30 0 0 55,2 -5,9
5 25.2.2018 14:00 0 0 54,3 -5,8
6 25.2.2018 13:30 0 0 54,9 -5,9
7 25.2.2018 13:00 0 0 54,5 -5,9
8 25.2.2018 12:30 0 0 53,9 -6
9 25.2.2018 12:00 0 0 54,6 -6,2
10 25.2.2018 11:30 0 0 55,8 -6,8
11 25.2.2018 11:00 0 0 57,8 -7,3
12 25.2.2018 10:30 0 0 58 -7,4
13 25.2.2018 10:00 0 0 60,2 -7,9
14 25.2.2018 09:30 0 0 64 -8,7
15 25.2.2018 09:00 0 0 66,1 -9,3
16 25.2.2018 08:30 0 0 67,6 -9,6
17 25.2.2018 08:00 0 0 69,2 -10
18 25.2.2018 07:30 0 0 69,6 -10,2
19 25.2.2018 07:00 0 0 70,2 -10,1
20 25.2.2018 06:30 0 0 70 -9,8
21 25.2.2018 06:00 0 0 68,8 -9,6
22 25.2.2018 05:30 0 0 67,6 -9,3
23 25.2.2018 05:00 0 0 67 -9,1
24 25.2.2018 04:30 0 0 66,8 -8,8
25 25.2.2018 04:00 0 0 66,5 -8,4
26 25.2.2018 03:30 0 0 65,4 -8,2
27 25.2.2018 03:00 0 0 65,1 -8
28 25.2.2018 02:30 0 0 66,1 -7,7
29 25.2.2018 02:00 0 0 68 -7,4
30 25.2.2018 01:30 0 0 69,5 -7,2
31 25.2.2018 01:00 0 0 69,7 -7
32 25.2.2018 00:30 0 0 68,4 -6,8
33 25.2.2018 00:00 0 0 66,3 -6,5
34 24.2.2018 23:30 0 0 62,9 -6,3
35 24.2.2018 23:00 0 0 59,9 -6,3
36 24.2.2018 22:30 0 0 60 -6
37 24.2.2018 22:00 0 0 60,8 -5,9
38 24.2.2018 21:30 0 0 59,8 -5,6
39 24.2.2018 21:00 0 0 57,9 -5,1
40 24.2.2018 20:30 0 0 62,3 -4,9
41 24.2.2018 20:00 0 0 62,3 -4,6
42 24.2.2018 19:30 0 0 62,5 -4,2
43 24.2.2018 19:00 0 0 61,8 -3,9
44 24.2.2018 18:30 0 0 59,9 -3,6
45 24.2.2018 18:00 0 0 60,1 -3,2
46 24.2.2018 17:30 0 0 59,5 -2,8
47 24.2.2018 17:00 0 0 58,6 -2,2
48 24.2.2018 16:30 0 0 57,1 -2
© 2011 Ministrstvo za kmetijstvo, gozdarstvo in prehrano. Vse pravice pridržane.